sat.trackr.live / text

‹ back to catalog

STARLINK-30827

NORAD 58195 · 2023-167W

PAYLOAD ACTIVE UNKNOWN

§ Identity

Operator
Country
US
Launch date
2023-10-30
Launch site
AFETR
Launch vehicle
Mass (kg)
RCS (m²)

Purposes: comms

External: N2YO · Heavens-Above · Gunter

§ Orbital elements

Epoch: 2026-09-20T23:02:16.439136Z

Period
94.27 min
Inclination
43.0001°
Eccentricity
0.0001552
Mean motion
15.27595367 rev/d
Perigee alt
481.9 km
Apogee alt
484.1 km
Semi-major
6,861.1 km
B*
-2.5771e-4
RAAN
120.2231°
Arg perigee
269.0701°
Mean anomaly
90.9973°
Rev number
16,085

§ Raw data

STARLINK-308271 58195U 23167W   26263.95991249 -.00007350  00000+0 -25771-3 0  99952 58195  43.0001 120.2231 0001552 269.0701  90.9973 15.27595367160854

JSON: /api/v1/satellites/58195 · /tle

For live sub-satellite position, see the globe view (requires WebGL).

§ Visibility from observer

Set your observer location to see the next 7 days of passes ≥ 10°. The values pass through the URL so the page stays shareable.

No JS? Fill the form by hand. The geolocation button needs JavaScript.